Location: The Saddle
(36.8333°N, 80.3417°W)
Time: 04:21:12
(UTC-05:00)

Vanguard 3 - Visible Passes

Search period start: 23 February 2024 00:00
Search period end: 04 March 2024 00:00
Orbit: 508 x 3239 km, 33.4° (Epoch: 22 February)

Date Brightness Start Highest point End Pass type
(mag) Time Alt. Az. Time Alt. Az. Time Alt. Az.
23 Feb 11.3 00:31:45 10° W 00:33:32 14° W 00:33:32 14° W visible
23 Feb 10.6 18:44:03 10° SSW 18:59:14 33° SE 19:12:24 15° E visible
23 Feb 9.8 20:55:09 10° SW 21:14:21 62° SSE 21:16:43 59° SE visible
23 Feb 10.5 23:10:48 10° WSW 23:21:03 39° WSW 23:21:03 39° WSW visible
24 Feb 10.2 19:36:56 10° SW 19:54:26 49° SSE 20:04:11 30° E visible
24 Feb 9.8 21:50:30 10° WSW 22:08:30 70° SSW 22:08:30 70° SSW visible
25 Feb 11.0 00:07:26 10° W 00:12:49 23° W 00:12:49 23° W visible
25 Feb 10.6 18:20:11 10° SSW 18:35:04 35° SE 18:51:23 10° E visible
25 Feb 9.9 20:31:14 10° SW 20:50:10 64° SSE 20:55:54 50° ESE visible
25 Feb 10.2 22:46:38 10° W 23:00:13 52° WSW 23:00:13 52° WSW visible
26 Feb 11.4 01:04:14 10° W 01:04:32 11° W 01:04:32 11° W visible
26 Feb 10.2 19:13:12 10° SW 19:30:11 52° SSE 19:43:15 23° E visible
26 Feb 9.7 21:26:34 10° WSW 21:46:20 75° SSE 21:47:33 74° SE visible
26 Feb 10.7 23:43:10 10° W 23:51:52 33° W 23:51:52 33° W visible
27 Feb 10.0 20:07:31 10° SW 20:25:56 67° SSE 20:34:50 40° E visible
27 Feb 9.9 22:22:35 10° W 22:39:08 67° WSW 22:39:08 67° WSW visible
28 Feb 11.2 00:39:52 10° W 00:43:26 18° W 00:43:26 18° W visible
28 Feb 10.2 18:49:40 10° SW 19:05:56 54° SSE 19:22:04 16° E visible
28 Feb 9.7 21:02:47 10° WSW 21:22:10 77° S 21:26:22 63° ESE visible
28 Feb 10.4 23:18:58 10° W 23:30:39 44° W 23:30:39 44° W visible
29 Feb 10.0 19:43:59 10° WSW 20:01:40 69° SSE 20:13:32 31° E visible
29 Feb 9.8 21:58:40 10° W 22:17:49 79° SSW 22:17:49 79° SSW visible
01 Mar 10.9 00:15:34 10° W 00:22:06 26° W 00:22:06 26° W visible
01 Mar 10.2 18:26:19 10° SW 18:41:43 56° SSE 19:00:39 10° E visible
01 Mar 9.9 20:39:09 10° WSW 20:57:56 78° S 21:04:56 51° E visible
01 Mar 10.1 22:54:53 10° W 23:09:13 55° WSW 23:09:13 55° WSW visible
02 Mar 11.4 01:12:27 10° W 01:13:30 12° W 01:13:30 12° W visible
02 Mar 10.0 19:20:37 10° WSW 19:37:25 70° SSE 19:52:00 23° E visible
02 Mar 9.7 21:34:52 10° W 21:54:25 80° S 21:56:17 75° SE visible
02 Mar 10.7 23:51:20 10° W 00:00:34 34° W 00:00:34 34° W visible
03 Mar 10.0 20:15:41 10° WSW 20:33:41 79° S 20:43:19 41° E visible
03 Mar 9.9 22:30:56 10° W 22:47:36 66° WSW 22:47:36 66° WSW visible
